{"data":{"norad_id":64278,"intl_designator":"2025-120Y","name":"STARLINK-34353","alt_names":[],"object_type":"PAYLOAD","status":"ACTIVE","operator":null,"country":"US","launch_date":"2025-06-04","launch_site_code":"AFWTR","launch_vehicle":null,"mission":null,"orbit_class":"UNKNOWN","rcs_meters":null,"size_class":null,"mass_kg":null,"dimensions":null,"purposes":["comms"],"wikipedia_slug":null,"has_3d_model":false,"image_url":null,"decayed_at":null,"tle_current":{"epoch":"2026-09-20T05:38:30.924096Z","epoch_age_seconds":160573,"freshness":"FRESH","line1":"1 64278U 25120Y   26263.23508014  .00015918  00000+0  48112-3 0  9991","line2":"2 64278  53.1609 290.7998 0001751  97.4765 262.6437 15.34407937 73732","mean_motion":15.34407937,"eccentricity":0.0001751,"inclination_deg":53.1609,"raan_deg":290.7998,"arg_perigee_deg":97.4765,"mean_anomaly_deg":262.6437,"bstar":0.00048112,"rev_number":7373,"period_min":93.84727263699,"perigee_km":461.48182287675,"apogee_km":463.87747686754,"semimajor_km":6840.8166498721,"source":"CELESTRAK","updated_at":"2026-09-21T09:00:35.286294Z"}}}